EW4052 Weather Reports


Display with metric or nautical units.
time (UTC)temp
F
wind
direction
speed
MPH
gust
MPH
rain 1hr
in
rain 24hr
in
rain mn
in
humidity
%
barometer
mb
20260507130109 41 331 4.0 10.0 0.00 0.00 0.00 67 1012.4
20260507124603 42 300 6.0 12.0 0.00 0.00 0.00 67 1012.7
20260507123053 42 17 0.0 1.0 0.00 0.00 0.00 65 1012.1
20260507121550 40 20 0.0 0.0 0.00 0.00 0.00 66 1011.5
20260507120049 38 20 0.0 0.0 0.00 0.00 0.00 69 1011.4
20260507114555 37 20 0.0 0.0 0.00 0.00 0.00 68 1011.4
20260507113047 37 20 0.0 0.0 0.00 0.00 0.00 68 1011.5
20260507111550 37 20 0.0 0.0 0.00 0.00 0.00 67 1011.5
20260507110044 38 20 0.0 0.0 0.00 0.00 0.00 66 1011.9
20260507104542 39 20 0.0 1.0 0.00 0.00 0.00 66 1012.1
20260507103043 39 20 0.0 0.0 0.00 0.00 0.00 65 1012.4
20260507101547 39 20 0.0 0.0 0.00 0.00 0.00 66 1012.1
20260507100043 38 20 0.0 0.0 0.00 0.00 0.00 67 1012.4
20260507094545 38 20 0.0 0.0 0.00 0.00 0.00 69 1012.3
20260507093042 38 20 0.0 0.0 0.00 0.00 0.00 66 1012.6
20260507091539 39 20 0.0 0.0 0.00 0.00 0.00 64 1012.6
20260507090036 40 20 0.0 0.0 0.00 0.00 0.00 64 1012.9
20260507084535 40 20 0.0 0.0 0.00 0.00 0.00 66 1013.3
20260507083028 40 20 0.0 0.0 0.00 0.00 0.00 66 1013.5
20260507081527 40 24 1.0 6.0 0.00 0.00 0.00 65 1013.8
20260507080024 38 355 0.0 0.0 0.00 0.00 0.00 65 1013.7
20260507074524 37 355 0.0 0.0 0.00 0.00 0.00 67 1013.8
20260507073025 37 355 0.0 0.0 0.00 0.00 0.00 67 1013.7
20260507071522 37 355 0.0 0.0 0.00 0.00 0.00 66 1013.9
20260507070020 37 355 0.0 0.0 0.00 0.00 0.00 66 1014.1
20260507064519 38 355 0.0 0.0 0.00 0.00 0.00 64 1014.1
20260507063018 38 355 0.0 0.0 0.00 0.00 0.00 64 1014.1
20260507061517 37 360 0.0 0.0 0.00 0.00 0.00 66 1014.1
20260507060023 37 360 0.0 0.0 0.00 0.00 0.00 66 1014.2
20260507054514 36 360 0.0 0.0 0.00 0.00 0.00 66 1014.4
20260507053011 37 360 0.0 0.0 0.00 0.00 0.00 65 1014.6
20260507051508 38 360 0.0 0.0 0.00 0.00 0.00 67 1014.7
20260507050006 39 360 0.0 0.0 0.00 0.00 0.00 66 1014.7
20260507044504 40 360 0.0 0.0 0.00 0.00 0.00 62 1014.8
20260507043002 41 360 0.0 0.0 0.00 0.00 0.00 60 1014.9
20260507041501 41 26 0.0 0.0 0.00 0.00 0.00 60 1015.0
20260507040100 42 26 0.0 0.0 0.00 0.00 0.00 59 1015.1
20260507034614 44 26 0.0 6.0 0.00 0.00 0.00 56 1015.2
20260507033059 45 5 0.0 0.0 0.00 0.00 0.00 53 1015.3
20260507031559 45 360 2.0 7.0 0.00 0.00 0.00 54 1015.4
20260507024600 46 341 4.0 6.0 0.00 0.00 0.00 55 1015.4
20260507023057 47 355 5.0 8.0 0.00 0.00 0.00 55 1015.3
20260507021557 47 311 2.0 5.0 0.00 0.00 0.00 54 1015.2
20260507020055 47 290 0.0 0.0 0.00 0.00 0.00 53 1015.1
20260507014558 48 286 0.0 0.0 0.00 0.00 0.00 51 1015.0
20260507013101 48 283 0.0 0.0 0.00 0.00 0.00 50 1014.9
20260507011557 49 283 0.0 0.0 0.00 0.00 0.00 48 1014.9
20260507010053 49 281 0.0 3.0 0.00 0.00 0.00 48 1015.0
20260507004552 50 255 7.0 11.0 0.00 0.00 0.00 48 1015.0
20260507003052 50 265 8.0 13.0 0.00 0.00 0.00 47 1015.0
20260507001552 51 239 6.0 20.0 0.00 0.00 0.00 45 1015.0
20260507000054 52 249 11.0 17.0 0.00 0.00 0.00 44 1015.0
20260506234554 52 240 11.0 19.0 0.00 0.00 0.00 45 1015.1
20260506233048 51 259 11.0 19.0 0.00 0.00 0.00 47 1015.3
20260506231547 51 248 10.0 16.0 0.00 0.00 0.00 47 1015.3
20260506230047 51 242 13.0 21.0 0.00 0.00 0.00 43 1015.3
20260506224600 50 261 12.0 19.0 0.00 0.00 0.00 49 1015.4
20260506223044 51 248 15.0 23.0 0.00 0.00 0.00 46 1015.4
20260506221543 51 234 16.0 23.0 0.00 0.00 0.00 48 1015.4
20260506220041 51 268 10.0 16.0 0.00 0.00 0.00 47 1015.4
20260506214556 51 257 8.0 20.0 0.00 0.00 0.00 47 1015.6
20260506213043 51 269 11.0 19.0 0.00 0.00 0.00 46 1015.7
20260506211537 50 232 13.0 21.0 0.00 0.00 0.00 48 1015.9
20260506210040 49 230 11.0 22.0 0.00 0.00 0.00 47 1016.1
20260506204536 50 229 13.0 24.0 0.00 0.00 0.00 46 1016.2
20260506203034 49 236 13.0 22.0 0.00 0.00 0.00 49 1016.4
20260506201532 49 237 10.0 22.0 0.00 0.00 0.00 48 1016.5
20260506200030 48 239 14.0 24.0 0.00 0.00 0.00 52 1016.7
20260506194527 47 240 18.0 22.0 0.00 0.00 0.00 52 1016.9
20260506193025 47 259 13.0 18.0 0.00 0.00 0.00 53 1016.9
20260506191523 47 234 11.0 26.0 0.00 0.00 0.00 52 1016.9
20260506190020 46 248 12.0 21.0 0.00 0.00 0.00 50 1017.0
20260506184526 46 261 15.0 22.0 0.00 0.00 0.00 53 1017.1
20260506183018 46 267 14.0 22.0 0.00 0.00 0.00 53 1017.1
20260506181517 46 249 15.0 25.0 0.00 0.00 0.00 56 1017.0
20260506180024 45 239 20.0 26.0 0.00 0.00 0.00 55 1017.1
20260506174516 45 249 17.0 23.0 0.00 0.00 0.00 53 1017.3
20260506173013 45 245 15.0 22.0 0.00 0.00 0.00 55 1017.2
20260506171513 45 267 15.0 22.0 0.00 0.00 0.00 55 1017.1
20260506170010 45 253 17.0 22.0 0.00 0.00 0.00 56 1017.2
20260506164512 45 258 15.0 24.0 0.00 0.00 0.00 58 1017.2
20260506163010 44 252 17.0 24.0 0.00 0.00 0.00 56 1017.2
20260506161511 44 253 14.0 26.0 0.00 0.00 0.00 58 1017.1
20260506160007 44 247 13.0 21.0 0.00 0.00 0.00 54 1017.0
20260506154505 44 254 14.0 20.0 0.00 0.00 0.00 60 1017.1
20260506153005 44 252 13.0 22.0 0.00 0.00 0.00 58 1017.0
20260506151504 44 272 7.0 17.0 0.00 0.00 0.00 57 1017.0
20260506150004 43 248 11.0 17.0 0.00 0.00 0.00 57 1016.9
20260506144501 43 263 10.0 18.0 0.00 0.00 0.00 58 1017.0
20260506143003 42 254 5.0 11.0 0.00 0.00 0.00 61 1017.0
20260506141605 41 241 5.0 12.0 0.00 0.00 0.00 62 1017.1
20260506140122 41 261 4.0 10.0 0.00 0.00 0.00 65 1017.0
20260506134600 40 248 4.0 7.0 0.00 0.00 0.00 64 1017.0
20260506133104 39 259 1.0 8.0 0.00 0.00 0.00 64 1016.9
20260506131557 39 257 2.0 9.0 0.00 0.00 0.00 67 1016.8